Flag for Saudi Arabia Weather past 2 weeks in Riyadh, Saudi Arabia

Now
73 °F

Sunny.


Feels Like: 75 °F
Forecast: 50 / 75 °F
Wind: 10 mph from South

Location: Riyadh Airport

Current Time: Jan 25, 2015 at 3:39:00 PM

Latest Report: Jan 25, 2015 at 3:00 PM


Visibility: 10 mi

Pressure: 30.18 "Hg

Humidity: 15%

Dew point: 23 °F

Location of RiyadhLocation

Historic Weather in Riyadh — Graph

°F

Riyadh temperature yesterday

Maximum temperature yesterday: 75 °F (at 3:00 PM)
Minimum temperature yesterday: 48 °F (at 7:00 AM)
Average temperature yesterday: 65 °F

Past Weeks' High & Low Weather Summary

 TemperatureHumidityPressure
High75 °F (Jan 16, 3:00 PM)94% (Jan 18, 4:00 AM)30.42 "Hg (Jan 18, 4:00 AM)
Low39 °F (Jan 11, 5:00 AM)12% (Jan 23, 5:00 PM)30.04 "Hg (Jan 16, 3:00 PM)
Average57 °F37%30.20 "Hg
* Reported Jan 10 3:00 PM — Jan 25 2:00 PM, Riyadh, Weather by CustomWeather, © 2014

Note: Actual official high and low records may vary slightly from our data, if they occured in-between our weather recording intervals... More about our weather records

Advertising

Riyadh weather history for previous 24 hours

 ConditionsComfort  
Time TempWeatherWind HumidityBarometerVisibility
2:00 PM
Jan 25
72 °FSunny.13 mph15%30.21 "Hg5 mi
1:00 PM70 °FSunny.9 mph17%30.21 "Hg5 mi
12:00 PM70 °FSunny.8 mph17%30.24 "Hg5 mi
11:00 AM68 °FSunny.8 mph18%30.27 "Hg5 mi
10:00 AM64 °FSunny.6 mph22%30.27 "Hg5 mi
9:00 AM59 °FSunny.No wind27%30.27 "Hg5 mi
8:00 AM54 °FSunny.No wind33%30.27 "Hg5 mi
7:00 AM48 °FSunny.No wind34%30.24 "Hg10 mi
3:00 AM52 °FClear.3 mph32%30.18 "Hg10 mi
2:00 AM54 °FClear.3 mph28%30.18 "Hg10 mi
1:00 AM54 °FClear.No wind28%30.18 "Hg10 mi
12:00 AM57 °FClear.3 mph25%30.18 "Hg10 mi
11:00 PM
Jan 24
63 °FClear.No wind20%30.18 "Hg10 mi
10:00 PM64 °FClear.8 mph21%30.21 "Hg10 mi
9:00 PM64 °FClear.7 mph21%30.18 "Hg10 mi
8:00 PM66 °FClear.8 mph19%30.18 "Hg10 mi
7:00 PM70 °FClear.2 mph16%30.18 "Hg10 mi
6:00 PM72 °FClear.2 mph14%30.15 "Hg10 mi
5:00 PM73 °FSunny.3 mph13%30.15 "Hg10 mi
4:00 PM73 °FSunny.6 mph14%30.12 "Hg10 mi
3:00 PM75 °FSunny.5 mph12%30.12 "Hg10 mi
Weather by CustomWeather, © 2014

See weather overviewHow to use our weather pages